カタログに戻る

STARLINK-30336

運用中通信VLEO
NORAD 57703·PAYLOAD·🇺🇸 United States

打ち上げ Aug 27, 2023 から Cape Canaveral Space Force Station

Loading…

次のパス (今後24時間)

TLE

最新Source: CelesTrak SupGP

元期: Sep 14, 2026, 20:46 UTC

1 57703C 23129F   26257.86576389 -.00015929  00000+0 -57714-3 0  2574
2 57703  42.9993 129.5395 0001355 267.7299 128.8627 15.27575375    12

AllMySatでSTARLINK-30336をリアルタイム追跡

Download on the App Store